Theta_e
306 305 304 303 303 304 305 305 307 307 307 308 307 308 309 308 307 307 310 313 312 308 308 309 309 308 308 308 308 307 306 306 306 306 306 306 306 306 305 305 305 305 305 305 305 305 305 305 305 305 305 305 305 305 305 305 305 305 305 306 306 307 307 309 310 310 311 313 316 319 320 320 321 321 321 321 320 320 319 318 317 316 315 313 312 312 311
307 305 304 304 304 305 305 305 306 306 306 307 307 308 308 308 308 308 308 312 313 309 308 310 309 306 306 307 306 306 306 305 305 305 305 305 305 304 303 303 303 303 303 303 303 303 303 303 303 303 303 304 304 304 305 305 305 306 306 305 305 305 306 306 307 308 309 310 312 315 318 320 320 321 321 321 321 320 319 318 317 316 315 313 312 312 311
305 304 304 304 304 305 305 306 306 305 305 305 305 306 306 305 306 306 305 309 310 306 306 307 305 303 304 305 306 306 306 305 305 306 305 303 302 302 302 302 302 302 301 301 302 301 301 302 302 302 302 302 302 302 303 303 304 304 305 305 305 305 305 305 305 306 307 308 309 312 314 317 319 320 320 320 320 320 319 318 317 316 315 312 312 312 311
303 303 303 303 304 304 304 305 306 305 305 305 305 304 305 305 306 306 305 306 306 305 305 304 304 305 306 307 307 307 306 305 305 305 303 302 302 301 301 301 301 301 301 301 301 301 300 301 301 301 301 301 301 301 301 302 302 302 303 303 303 303 303 304 304 304 305 306 307 308 311 314 317 319 319 320 320 319 319 317 316 315 314 312 312 311 311
302 303 304 304 304 303 303 304 305 306 307 307 306 305 305 306 306 306 305 305 306 306 305 303 305 307 307 308 307 305 305 305 305 304 302 301 302 301 300 301 300 300 301 300 300 300 300 300 300 300 300 300 300 301 301 301 301 301 301 301 302 302 302 302 303 303 304 304 305 306 307 310 314 318 319 319 319 319 318 317 316 314 313 312 311 311 310
301 302 304 303 303 302 302 302 303 304 305 306 306 306 306 306 305 304 304 304 304 304 304 305 306 307 306 305 304 303 304 304 304 304 303 302 302 301 301 301 300 300 300 300 300 300 300 300 300 300 300 300 300 300 300 300 300 301 301 301 301 301 301 301 302 302 302 303 304 304 305 307 311 315 317 318 318 318 318 316 315 314 313 312 311 310 309
300 300 302 303 303 303 302 301 302 302 302 303 304 305 304 304 304 303 303 304 304 304 304 305 305 305 304 303 303 303 303 303 303 304 303 302 302 302 302 301 301 300 300 300 300 300 300 300 300 300 300 299 300 300 300 300 300 300 300 300 300 300 300 301 301 301 302 303 303 303 304 305 309 313 315 317 317 317 317 315 314 313 313 312 310 309 308
300 300 301 302 303 302 302 302 303 303 303 303 303 303 303 303 302 303 304 305 305 305 305 303 303 304 304 303 303 302 301 301 302 302 302 303 303 302 302 302 301 301 300 300 300 300 300 300 300 300 300 300 299 299 299 299 299 299 299 300 300 300 300 300 301 301 302 302 303 303 303 304 308 312 314 315 316 317 316 315 313 312 312 310 309 308 306
300 300 301 301 302 302 303 304 303 302 303 303 303 302 302 301 301 302 304 304 304 305 305 303 303 304 304 304 302 301 301 301 301 301 301 301 302 302 301 302 301 301 300 300 301 301 301 300 300 300 300 299 299 299 299 299 299 299 299 299 299 299 300 300 300 301 301 302 302 303 303 304 307 311 313 315 316 316 315 314 312 311 311 309 308 306 305
299 300 301 302 302 302 302 303 302 301 302 302 302 302 302 301 300 301 302 302 302 304 304 302 303 304 303 303 303 301 301 301 301 301 301 301 301 301 301 301 300 300 300 300 300 300 300 300 300 300 300 299 299 299 299 299 299 299 299 298 299 299 299 299 299 300 300 301 302 303 303 303 306 310 313 315 316 315 314 313 312 311 310 308 306 305 305
300 301 302 301 302 302 301 301 302 301 301 300 301 303 303 301 300 300 301 301 302 303 302 302 303 303 302 302 303 302 301 301 301 301 301 300 300 300 300 300 300 300 300 300 300 300 300 300 300 300 300 300 300 299 299 299 299 299 299 299 299 299 299 299 300 300 300 301 302 303 303 303 304 309 312 314 315 314 313 311 310 309 307 306 305 305 305
300 301 301 301 300 301 301 301 301 301 300 300 302 304 303 300 300 300 300 301 302 301 301 301 303 303 302 302 302 301 300 300 299 299 298 299 298 298 298 298 299 299 299 300 300 300 300 300 300 300 300 300 300 300 300 300 300 300 300 300 300 300 300 300 300 300 300 300 301 303 304 303 305 309 313 314 314 313 311 310 309 307 305 305 305 305 303
300 300 301 301 300 301 302 301 300 300 300 301 304 303 300 298 299 300 300 301 302 301 301 301 302 302 301 300 300 299 298 298 298 298 298 298 297 298 298 298 298 298 298 298 299 299 299 300 300 300 300 301 300 300 300 300 301 301 301 302 301 301 301 301 301 301 301 301 302 304 304 304 307 311 314 314 314 312 310 309 307 306 305 305 304 302 300
298 298 299 299 299 300 301 300 299 299 300 301 301 300 298 298 299 299 300 301 301 300 300 300 300 300 300 299 299 298 298 298 297 297 297 297 298 297 297 298 298 298 298 298 298 298 298 299 299 299 300 300 300 300 300 301 302 302 302 302 302 302 302 302 302 302 301 302 303 304 305 306 309 312 313 313 312 311 309 307 306 305 305 303 302 300 298
296 297 298 299 298 299 300 300 298 299 299 299 298 298 297 298 298 298 300 300 299 299 299 299 299 299 298 298 298 298 298 297 297 297 297 297 297 297 297 298 298 298 299 299 298 298 298 299 299 299 300 300 300 300 300 301 302 303 303 302 302 303 303 303 303 303 303 304 305 305 306 308 311 312 312 312 310 309 307 306 306 305 303 301 300 298 297
297 297 298 299 298 298 299 298 298 298 298 297 297 297 298 297 297 298 299 299 299 299 299 299 299 298 297 297 297 297 297 297 297 297 297 297 297 297 297 297 298 298 298 299 299 299 299 299 299 299 300 300 300 300 300 301 302 303 303 303 303 303 303 304 304 304 305 306 306 306 307 310 311 312 311 310 308 307 306 306 304 302 300 298 298 298 298
297 297 298 298 298 298 298 297 297 298 298 297 297 297 297 297 298 298 299 299 299 299 298 298 298 298 298 297 297 297 297 297 297 297 297 297 297 297 297 298 298 298 298 299 300 300 300 299 300 300 300 300 301 301 301 302 303 303 303 303 303 304 304 304 304 305 306 307 307 308 309 311 311 311 309 307 306 305 304 302 300 298 298 298 298 298 297
297 297 297 297 297 297 297 296 297 297 297 297 297 296 296 297 298 298 298 298 298 298 298 297 297 297 297 297 297 297 297 297 297 297 297 297 297 297 298 298 298 298 298 299 300 300 300 300 300 300 300 301 301 302 302 302 303 303 304 304 304 304 304 304 305 306 306 307 308 309 310 309 309 308 305 303 302 300 299 298 298 298 298 298 297 295 294
296 296 297 296 297 297 297 296 296 296 296 296 296 296 296 296 296 296 296 296 297 297 297 297 297 297 297 297 297 297 297 297 297 297 297 297 297 298 298 298 298 298 298 299 300 300 300 300 300 300 300 301 302 302 302 303 303 304 304 304 304 304 304 304 305 306 307 308 309 308 307 306 305 304 302 301 300 298 297 298 298 298 297 296 295 294 295
295 296 296 297 297 297 296 296 296 296 296 296 296 296 296 296 296 295 295 296 296 296 296 297 297 297 297 297 297 297 296 296 296 297 297 297 298 298 298 298 298 299 299 299 299 299 300 300 300 300 300 301 302 303 303 303 303 304 304 304 304 304 304 304 305 306 307 308 308 306 304 303 302 301 300 299 298 297 297 298 297 296 295 295 295 295 295
295 295 296 296 296 296 296 296 295 295 295 295 295 296 295 295 295 295 295 296 296 297 297 297 297 297 297 296 296 296 296 297 297 297 298 298 298 298 298 298 299 299 300 300 299 299 300 299 300 300 301 302 302 303 303 303 304 304 304 304 304 304 304 304 306 307 307 307 306 303 302 301 299 298 298 297 298 298 298 297 295 294 295 295 295 295 295
294 295 295 295 295 295 296 296 295 295 295 295 295 295 295 295 295 296 296 296 296 297 297 297 297 297 296 296 296 297 297 298 298 298 299 299 299 299 299 299 299 300 300 300 300 300 299 300 300 301 302 302 303 303 303 304 304 304 304 304 304 304 304 305 306 306 306 305 303 301 299 298 298 298 298 297 297 298 297 295 295 295 295 295 295 295 295
295 295 295 295 295 295 295 295 295 295 295 295 295 295 295 295 295 296 296 296 297 297 297 297 297 297 296 297 297 298 298 299 299 299 300 300 300 299 299 299 300 300 300 300 300 300 300 300 301 302 302 303 303 303 304 304 304 304 304 304 303 304 304 305 306 305 304 302 300 299 298 298 298 298 297 296 296 296 296 295 295 296 295 295 295 295 295
295 295 295 295 295 295 295 295 295 295 295 295 295 295 295 295 296 296 296 297 297 297 297 296 297 297 297 297 298 298 299 299 299 299 299 299 299 299 299 299 299 299 300 300 300 300 300 301 302 302 303 303 303 303 304 303 303 303 303 303 303 304 304 305 304 304 301 299 298 298 298 298 298 298 297 295 295 295 295 295 295 295 295 295 295 295 295
294 294 294 294 295 295 295 295 295 295 296 295 295 295 295 295 295 296 296 296 296 296 296 296 296 297 297 298 298 298 299 299 299 299 299 299 298 298 298 298 299 299 299 300 300 300 300 301 302 303 302 302 302 302 302 303 303 303 303 303 304 304 304 303 302 301 299 298 298 299 299 299 298 297 296 295 295 295 295 295 295 295 295 295 295 295 294
294 294 295 295 295 295 296 295 295 296 296 296 296 295 295 295 295 295 295 296 296 296 296 296 297 297 297 297 298 298 298 298 298 298 298 298 298 298 298 298 298 299 299 299 299 300 301 302 302 302 301 301 301 301 302 303 303 303 304 304 304 303 302 301 300 299 299 299 299 299 299 298 297 296 295 295 296 295 295 294 295 295 295 295 295 295 294
294 295 295 295 296 296 296 296 296 295 295 296 296 295 295 295 295 295 295 295 295 296 296 296 297 297 297 297 297 297 297 298 298 298 298 298 298 298 298 298 298 299 300 300 300 301 301 302 302 301 300 299 299 300 301 303 304 304 303 303 302 300 299 299 299 299 299 299 299 299 298 297 295 295 295 296 295 295 295 295 295 295 295 295 295 294 293
295 296 296 296 296 295 295 295 295 294 295 295 295 295 295 295 295 296 296 295 296 296 296 296 296 296 296 297 297 297 297 297 297 297 297 297 297 297 297 298 299 301 301 301 301 301 301 301 301 300 299 299 299 300 301 302 302 301 301 300 299 298 298 298 299 299 299 298 299 298 297 295 295 295 295 295 295 295 295 295 295 295 295 295 295 294 293
295 295 295 295 295 295 294 294 294 294 294 294 295 295 295 295 296 296 296 296 296 296 296 296 296 296 296 297 297 296 296 295 295 295 295 295 295 296 297 299 301 302 301 301 301 301 301 301 300 299 299 299 300 300 300 300 299 299 298 298 298 299 299 299 299 299 299 298 298 297 295 295 295 296 295 295 295 295 295 295 295 295 295 295 295 294 294
295 295 295 294 294 294 294 294 295 295 295 295 295 295 296 296 296 296 296 296 296 296 297 297 296 296 296 296 295 295 294 294 294 294 294 294 295 296 298 300 301 301 300 300 301 301 300 300 300 299 299 300 300 300 300 299 299 299 299 299 299 300 299 299 299 299 299 298 297 296 295 295 296 296 295 295 295 296 296 296 295 295 295 295 295 295 294
295 294 294 294 294 294 294 295 295 295 295 295 296 296 296 296 296 296 296 297 296 296 296 296 295 296 295 295 294 294 294 294 294 293 293 294 295 297 299 300 301 300 300 300 300 300 299 299 299 299 299 300 300 300 300 300 300 300 300 300 299 299 299 299 298 299 298 298 297 296 296 296 295 295 295 296 296 296 296 296 295 295 295 295 295 295 295
294 294 294 294 294 294 294 294 295 295 295 295 295 296 296 296 296 296 296 295 295 295 295 295 295 295 294 294 294 294 294 294 294 294 293 294 295 297 298 299 300 300 300 300 300 299 299 300 300 299 299 299 299 299 299 299 299 299 299 299 299 299 299 298 299 299 298 297 296 296 295 295 295 295 296 296 296 296 296 296 296 295 295 295 295 295 295
294 294 294 294 294 293 294 294 294 294 294 294 294 295 295 295 295 295 294 294 294 294 294 294 294 294 294 294 295 295 294 294 294 294 294 294 295 296 297 298 300 300 300 300 300 300 300 300 300 300 299 299 299 299 299 299 299 299 299 299 299 299 299 299 299 299 297 296 296 296 296 296 296 296 296 296 296 296 296 296 296 296 296 295 295 295 295
294 294 294 293 293 293 293 294 294 293 293 293 293 293 293 294 294 293 293 294 293 293 293 293 293 293 294 295 295 295 294 294 294 294 294 294 295 295 296 297 299 300 301 301 301 301 301 300 300 300 300 300 300 300 299 300 300 300 299 299 299 299 299 299 299 298 296 295 296 296 296 296 297 296 296 297 297 297 296 296 296 296 296 295 295 294 294
293 293 293 293 293 293 293 293 293 292 292 292 292 292 293 293 293 293 293 293 293 292 292 293 293 293 294 295 295 294 294 293 293 293 294 295 296 296 296 298 299 300 301 301 301 301 301 301 301 301 301 301 300 300 300 300 300 300 300 300 299 299 299 299 298 297 296 296 296 296 296 297 296 296 297 297 297 297 296 296 296 296 295 295 295 295 295
293 293 293 293 293 293 293 293 293 293 293 293 293 293 293 293 293 293 293 292 292 292 293 293 293 293 294 293 293 293 294 294 294 294 295 296 297 298 298 298 299 299 299 299 299 299 299 300 300 300 301 301 301 300 300 300 300 300 300 300 300 300 299 299 297 296 296 296 296 296 297 297 296 296 297 297 297 296 296 296 296 296 296 295 295 295 295
293 293 293 293 293 294 294 293 293 293 293 293 293 293 293 292 292 292 292 292 292 292 292 292 292 292 292 292 292 292 292 293 293 294 294 296 298 299 299 299 298 298 298 297 297 298 298 299 299 300 301 301 300 300 299 299 300 300 300 300 300 300 300 299 297 296 296 296 297 297 297 297 297 297 297 297 297 296 296 296 296 296 296 296 295 295 295
293 293 294 294 294 294 294 293 293 292 292 292 292 292 292 292 292 292 292 292 292 292 292 292 291 291 291 291 291 291 291 291 291 292 293 294 296 298 298 297 297 297 296 295 296 297 299 299 300 300 300 300 300 300 300 300 300 301 300 300 300 299 299 299 298 297 297 297 297 297 297 297 297 297 297 297 296 296 296 296 297 297 296 296 296 295 295
293 294 294 294 294 293 293 292 292 292 292 292 292 292 292 292 292 292 292 292 292 292 292 292 292 292 292 292 291 291 291 290 291 291 291 292 293 294 294 294 294 294 294 295 296 297 297 298 299 299 299 299 300 300 300 300 300 301 301 301 300 298 298 298 298 297 297 297 297 297 298 298 297 297 296 296 296 296 296 297 297 296 296 296 296 296 296
293 294 294 294 293 293 293 292 292 292 292 292 292 292 292 292 292 292 292 292 292 293 293 293 293 293 292 292 292 291 291 291 291 290 290 290 291 292 293 293 293 293 293 293 294 295 295 295 296 297 297 298 298 299 299 299 300 300 300 300 299 298 298 297 297 297 297 297 298 298 298 297 297 296 296 296 296 296 296 296 295 294 294 294 295 295 296
294 294 294 293 293 293 293 293 293 292 292 293 292 292 292 292 292 292 292 291 291 292 292 292 292 292 292 292 292 292 292 292 292 292 291 291 290 290 291 292 293 293 293 292 292 293 294 294 295 296 296 296 297 297 298 298 298 299 299 298 298 298 298 298 298 298 298 298 297 297 297 296 296 296 296 296 296 295 294 293 293 292 292 293 293 294 294
294 294 294 293 293 293 293 293 293 293 293 293 293 292 292 291 291 290 289 289 289 289 289 289 289 290 290 291 291 292 292 291 291 292 292 292 291 290 290 290 291 292 292 292 291 291 291 292 293 294 294 295 295 296 296 297 297 297 297 298 298 298 298 298 298 297 297 297 296 296 296 296 296 296 296 295 293 292 292 292 292 292 292 292 292 293 294
294 294 294 293 293 293 293 293 294 293 293 292 292 291 290 289 288 288 287 287 287 287 287 287 287 287 288 288 289 290 290 290 290 290 290 290 290 290 289 289 289 290 290 290 290 290 290 290 290 291 291 292 293 294 296 297 297 297 296 296 296 297 297 297 296 296 296 296 296 296 296 295 295 294 293 292 291 291 291 291 291 291 291 291 292 293 293
294 294 294 293 293 293 294 294 294 293 292 291 290 289 288 287 287 287 287 287 287 287 287 287 286 286 286 287 287 287 287 288 288 288 288 289 289 289 289 288 289 289 289 290 290 290 289 289 289 289 290 290 290 291 293 294 295 295 295 295 295 295 295 295 295 295 294 294 294 293 293 292 291 291 290 290 290 291 291 291 290 290 290 291 291 292 293
294 294 294 294 294 294 294 293 292 291 290 289 288 287 287 287 286 286 286 286 286 286 286 286 286 286 286 286 286 286 286 286 287 287 288 288 288 288 288 288 289 289 289 289 290 290 290 290 289 289 289 289 289 289 289 290 290 291 291 291 292 292 292 292 292 291 291 290 290 290 289 289 289 289 289 290 290 289 289 289 289 289 289 290 291 291 292
294 294 294 294 294 293 292 291 290 289 288 288 288 287 287 286 286 286 286 286 285 285 285 285 285 285 285 285 285 285 285 285 286 286 286 286 285 285 286 287 288 288 288 289 289 290 290 290 289 289 289 289 289 289 289 289 289 289 289 289 289 289 289 289 289 289 289 289 289 289 289 289 289 289 288 288 288 288 288 288 289 289 290 290 291 292 293
291 292 292 291 291 290 289 289 289 288 288 288 288 287 287 286 286 286 285 285 285 285 285 285 285 285 284 284 284 284 284 285 285 285 285 284 284 284 285 285 286 287 287 288 288 288 289 289 289 289 289 289 289 289 288 288 288 288 288 288 288 288 289 289 288 288 288 288 288 288 288 288 287 287 287 287 287 287 287 287 288 289 291 291 292 292 293
290 290 290 290 289 289 289 289 289 289 288 288 288 287 287 286 286 285 285 285 285 285 285 285 284 284 284 284 284 284 284 284 284 284 284 284 284 284 284 285 285 285 285 286 287 287 287 288 288 288 288 288 288 288 288 287 287 287 287 287 287 287 287 287 287 287 287 287 287 287 286 286 286 286 286 286 286 286 286 287 288 290 291 292 292 292 293
290 290 290 290 289 289 289 289 289 289 289 288 288 287 287 287 286 286 285 285 284 284 284 284 284 284 284 284 284 283 283 283 283 283 283 283 283 283 283 284 284 284 285 285 285 285 286 286 287 287 287 287 287 287 287 286 286 286 286 286 286 286 286 286 286 286 286 286 286 286 285 285 286 286 285 285 285 286 286 287 287 288 289 290 291 291 292
290 290 290 290 290 289 289 289 289 289 288 288 288 287 287 287 286 286 285 285 285 284 284 284 284 284 284 284 283 283 283 283 283 282 282 283 283 283 283 283 283 283 284 284 284 284 285 285 285 285 285 285 285 286 286 286 286 286 286 286 286 286 286 285 285 285 285 285 285 285 285 285 285 285 285 285 285 285 286 286 287 287 288 288 289 290 291
291 291 291 290 290 290 289 289 289 289 288 288 287 287 287 287 286 286 285 285 285 284 284 284 284 284 283 283 283 283 283 282 282 282 282 282 282 282 282 282 282 283 283 283 283 283 284 284 284 284 284 285 285 285 286 286 285 285 285 285 285 285 284 284 284 284 284 284 284 284 284 284 284 285 285 286 285 285 286 286 286 286 287 288 288 288 289
291 291 291 291 291 290 290 289 289 288 288 288 287 287 287 287 286 285 285 285 285 284 284 284 283 283 283 282 282 282 282 282 282 282 282 282 282 282 282 282 282 282 282 282 282 283 283 283 283 283 284 284 284 285 284 284 284 283 283 283 284 283 283 283 283 283 283 284 284 283 283 284 284 285 286 286 285 285 286 287 286 286 287 287 288 288 288
Wind_Speed
4 3 4 3 3 5 5 5 7 6 5 6 6 6 5 6 7 7 5 8 8 5 6 9 8 8 10 11 11 10 8 7 7 6 6 6 7 7 8 8 8 8 8 8 9 9 8 9 8 8 8 7 8 9 9 10 11 11 11 12 12 13 13 14 14 13 13 14 15 17 20 22 24 26 27 29 32 33 33 34 35 36 36 34 31 31 31
4 5 5 4 4 5 5 6 8 7 6 8 8 7 5 7 9 5 3 7 9 5 5 6 5 7 11 13 12 10 8 8 7 6 5 6 6 7 7 7 7 8 8 8 9 10 10 11 11 11 12 11 12 13 13 13 13 13 13 13 13 14 15 15 16 17 17 17 17 17 19 20 21 21 21 22 24 27 30 32 35 37 37 34 32 33 34
5 5 6 6 7 8 10 10 7 5 6 7 8 6 3 4 7 4 4 8 7 5 5 4 2 3 8 10 10 9 8 8 8 6 4 5 6 6 7 7 7 7 8 8 9 10 10 12 13 13 14 14 15 16 16 17 17 16 16 16 16 16 16 16 17 19 20 20 20 20 20 20 19 19 20 21 22 25 28 31 34 37 37 34 33 34 35
5 5 8 10 7 8 11 10 6 7 9 7 5 5 5 6 8 7 7 8 6 5 5 3 2 5 8 9 8 7 7 8 8 5 4 5 6 7 7 7 8 8 9 10 10 11 12 13 14 15 15 16 17 18 19 20 20 19 19 19 19 18 18 18 18 19 20 21 22 22 22 21 19 18 19 21 23 26 28 31 34 36 35 33 33 35 34
4 4 5 5 5 7 9 5 5 10 12 8 7 6 5 8 9 7 6 5 3 1 3 5 7 8 8 6 5 4 4 6 7 6 3 4 5 8 9 9 10 11 12 13 13 13 14 15 15 16 17 18 19 20 21 22 22 22 22 22 22 21 20 20 19 19 20 21 23 24 24 23 21 18 18 20 23 25 28 31 35 37 34 33 34 35 33
3 1 2 2 4 7 4 1 1 6 9 10 10 7 3 4 5 4 4 2 3 2 2 4 4 5 4 3 2 1 1 3 5 6 4 0 4 9 11 12 13 14 14 15 16 16 16 17 17 17 17 19 20 21 23 24 24 24 25 25 24 23 22 22 21 20 20 20 22 23 24 25 24 20 19 20 22 25 28 32 36 37 35 34 36 34 31
2 1 1 3 6 4 1 2 2 4 5 7 8 3 3 4 4 5 4 2 2 0 1 2 3 5 4 1 1 2 3 3 4 7 8 5 6 11 15 17 18 19 19 19 19 19 18 18 18 18 18 19 21 22 23 25 25 26 27 27 27 25 24 22 22 22 21 21 21 23 24 25 25 22 20 20 22 25 28 32 35 37 36 36 35 32 28
1 0 3 4 3 4 3 2 2 2 2 2 2 1 4 6 5 4 3 2 2 1 3 4 5 5 4 2 3 6 7 6 6 6 7 9 10 13 16 19 21 22 22 22 22 21 21 20 20 20 20 20 22 23 24 24 25 26 27 28 28 27 26 23 22 22 23 22 21 22 24 25 25 22 19 19 21 23 27 31 35 37 36 35 33 29 25
2 2 4 3 4 6 4 1 3 2 1 2 2 0 3 5 5 4 4 4 4 4 4 6 5 5 4 1 3 8 10 9 9 9 9 11 13 14 16 19 21 22 23 23 23 23 22 22 22 21 22 23 24 25 26 26 26 27 28 28 28 27 27 25 24 23 23 23 22 23 24 25 25 22 18 17 19 22 27 32 37 38 36 34 30 25 21
1 2 4 3 4 4 1 1 2 3 2 2 2 1 1 4 5 5 5 6 6 6 6 7 6 5 3 1 0 6 11 12 12 12 13 14 15 17 19 21 22 23 24 24 24 24 24 24 23 23 23 25 26 28 28 28 28 29 30 29 27 27 27 26 25 24 24 24 23 23 23 24 24 21 17 17 20 23 28 34 39 39 36 32 27 21 17
1 3 4 4 4 2 0 1 3 4 3 3 2 3 2 2 5 6 6 6 7 6 6 5 4 3 2 2 3 9 15 16 17 17 18 18 19 21 22 23 23 24 24 24 25 25 25 26 25 24 25 26 28 29 30 30 30 31 31 29 28 28 28 27 26 25 24 24 23 23 23 24 23 20 16 17 21 25 30 36 38 35 30 26 22 19 16
2 3 4 3 3 1 0 2 5 5 2 3 4 5 2 2 6 7 6 6 7 7 5 3 1 2 3 4 8 14 18 19 19 19 20 22 22 23 24 23 24 24 25 25 26 26 26 26 26 25 26 27 29 30 30 31 31 31 30 30 30 30 29 28 27 25 23 23 23 22 23 23 22 18 16 17 22 26 31 36 34 28 23 21 19 17 14
3 3 4 3 2 1 1 2 5 3 2 3 4 4 3 5 10 10 8 6 6 6 5 2 2 5 7 10 14 17 19 21 21 21 22 24 24 25 26 25 25 26 26 26 27 27 27 27 27 26 27 29 30 31 31 31 31 30 30 31 31 31 29 27 26 24 23 22 21 21 22 22 19 17 16 19 23 28 33 34 30 26 23 20 16 12 10
1 2 3 4 3 1 2 2 4 1 2 2 2 5 9 11 11 11 10 8 6 7 7 7 8 11 13 15 17 19 21 24 25 26 27 28 28 28 28 28 27 27 27 28 28 28 28 28 28 28 28 30 31 32 32 33 31 29 29 31 30 29 27 25 23 22 22 21 20 21 22 20 16 16 18 20 24 31 35 32 28 26 23 18 14 11 8
1 2 3 4 2 1 2 4 4 2 0 2 6 11 15 15 14 14 12 9 9 10 10 10 12 14 17 19 20 22 25 26 28 30 31 32 32 31 30 30 28 27 28 29 29 29 28 28 29 29 29 31 31 32 33 32 29 27 27 28 27 25 23 21 20 20 20 19 19 21 21 18 16 18 20 23 29 34 34 31 28 24 19 14 12 9 7
2 3 2 1 1 1 3 5 6 3 2 7 13 15 15 16 19 17 14 11 12 11 10 12 15 17 20 22 23 25 27 28 30 32 33 33 34 33 32 32 30 28 29 30 30 30 29 29 29 29 29 31 32 33 33 31 28 27 25 25 25 23 21 19 18 18 18 18 19 20 18 17 19 22 24 27 32 33 30 26 22 17 13 11 9 8 7
3 5 5 6 9 10 9 9 9 8 10 16 20 18 14 15 18 15 13 13 13 12 13 16 19 20 22 23 25 26 28 29 30 31 32 33 34 34 33 33 32 30 31 31 31 31 30 29 29 28 29 31 32 33 32 30 29 27 25 23 24 24 21 19 17 17 17 18 18 17 16 19 23 25 26 30 31 28 24 20 16 13 12 11 10 9 9
5 7 6 7 11 14 14 16 16 16 19 20 19 16 14 14 16 16 16 16 16 16 19 22 23 24 25 26 27 28 30 31 32 32 33 33 33 34 34 33 33 32 32 32 32 32 32 30 29 30 30 31 33 34 32 30 29 27 22 21 23 24 22 19 17 17 16 16 17 17 19 22 24 27 32 32 28 24 21 18 15 13 12 11 10 9 6
5 5 4 6 12 17 20 23 24 22 21 18 16 17 18 18 19 21 22 22 22 23 26 27 27 27 27 27 29 30 32 33 34 35 35 35 34 34 34 34 34 34 34 34 34 34 34 32 31 32 32 33 34 34 32 29 27 25 21 19 22 24 21 18 17 16 16 17 19 20 21 25 29 32 30 27 25 24 22 19 17 15 13 11 9 7 5
6 7 9 14 20 21 20 21 20 20 21 20 21 21 21 21 24 26 25 24 26 27 28 29 28 28 29 29 31 33 34 36 36 37 37 37 37 36 35 34 35 34 34 35 36 36 36 35 34 34 34 34 33 31 29 27 24 22 22 22 23 23 20 18 17 17 18 19 21 25 29 31 31 29 26 25 24 23 21 19 18 16 14 11 8 6 6
8 9 11 14 16 15 14 16 19 20 22 25 25 24 22 25 29 29 27 26 27 27 28 27 27 29 31 33 34 36 37 37 37 37 37 37 37 36 36 35 35 35 35 36 37 37 37 36 35 34 34 34 31 28 25 23 22 23 24 23 23 22 20 18 19 20 21 23 28 34 34 32 30 27 25 24 23 22 21 18 16 15 14 11 8 6 6
7 8 11 13 12 11 14 20 25 25 24 24 25 25 26 30 32 30 29 30 29 27 27 27 28 31 34 36 36 36 35 34 33 33 33 34 34 34 34 34 35 37 37 37 37 37 37 35 33 32 31 30 27 24 23 23 23 24 24 22 21 20 20 20 23 24 27 32 37 37 35 35 33 29 24 22 22 21 20 17 15 14 12 9 7 6 6
10 13 18 17 14 15 19 24 29 30 29 27 25 25 28 32 34 32 30 30 29 29 30 30 29 30 33 34 32 31 30 30 29 29 30 32 33 35 33 32 34 35 36 36 35 34 34 32 28 27 27 26 25 24 23 23 23 22 22 22 22 21 22 23 27 31 36 40 40 37 34 32 30 28 25 23 21 20 18 16 15 12 10 7 6 6 7
13 18 20 18 18 21 24 26 30 32 29 25 24 25 27 29 29 27 25 24 25 27 31 32 27 25 28 29 28 27 30 31 30 31 33 33 35 36 34 31 32 33 33 33 32 30 29 27 24 24 25 26 26 25 23 23 24 22 22 23 24 24 26 29 34 40 42 41 38 34 31 28 26 25 25 25 23 22 19 15 12 10 7 5 4 6 8
17 20 21 20 20 23 25 26 26 27 24 21 21 24 25 24 23 21 21 23 24 26 29 30 26 24 27 29 28 28 31 32 32 33 34 34 35 37 36 36 36 35 33 32 31 29 25 21 19 21 23 23 24 24 22 21 21 20 21 24 26 28 31 36 41 43 41 38 35 31 29 27 25 24 25 26 26 23 19 15 12 8 5 3 2 5 7
20 21 21 20 20 21 23 23 21 21 22 21 21 24 25 24 23 23 24 25 25 25 26 28 28 28 28 30 30 30 31 32 32 31 32 33 35 36 38 39 39 37 34 30 27 22 17 14 14 16 16 16 16 15 11 11 16 20 23 25 28 32 38 42 43 41 38 35 32 28 25 24 24 25 26 26 24 21 18 16 13 9 6 3 1 4 7
18 17 17 17 17 17 19 21 22 24 26 24 22 22 23 22 20 20 21 22 23 24 25 27 28 28 27 28 28 28 28 29 29 29 31 33 35 36 38 38 35 32 27 21 15 12 9 9 9 7 3 3 3 4 8 13 18 22 25 29 35 40 43 42 39 36 34 31 27 25 24 25 26 26 25 22 19 17 15 12 10 8 6 3 1 4 7
16 16 16 15 16 18 20 23 25 26 25 24 22 21 20 21 20 20 21 21 21 21 21 21 20 20 20 21 22 24 25 26 26 28 29 30 31 33 33 30 24 18 12 8 8 8 8 8 9 12 15 16 16 19 22 26 31 35 39 42 43 41 38 35 32 29 28 26 23 23 24 25 25 23 21 18 16 13 10 9 7 6 5 3 2 4 7
16 17 18 18 19 21 21 21 21 20 20 20 20 19 19 19 18 18 19 18 17 17 18 17 15 14 16 17 18 19 20 20 20 20 19 20 23 24 21 16 11 7 6 8 11 16 21 25 26 28 30 31 32 35 37 39 41 42 42 40 38 35 32 30 28 27 26 24 22 21 23 24 22 21 18 16 14 11 8 8 7 6 4 2 3 5 7
16 17 19 19 18 17 18 18 18 19 20 19 17 17 17 16 16 16 16 15 13 14 15 14 12 11 12 12 12 12 12 11 10 9 8 8 11 11 7 4 5 9 14 18 24 30 32 30 28 29 33 36 37 38 38 38 38 38 37 35 34 32 30 28 27 26 25 23 21 21 22 22 20 18 16 14 11 8 7 6 6 4 2 1 4 6 7
17 17 17 17 16 17 19 20 20 21 20 19 18 19 18 15 14 13 12 10 9 9 9 8 7 7 7 7 5 5 5 6 8 10 10 8 5 6 9 11 14 20 25 29 33 33 29 25 23 23 26 30 32 33 34 34 34 33 32 30 29 27 26 25 24 22 20 19 20 21 21 21 18 16 13 10 8 6 6 5 5 3 0 2 5 7 8
18 18 17 17 19 21 21 21 21 19 16 15 15 14 11 9 7 5 3 4 4 4 4 5 5 6 6 6 6 9 11 12 15 18 19 19 19 20 21 22 26 30 33 33 32 29 24 23 22 21 21 22 23 24 24 25 24 24 24 23 23 23 22 21 20 18 17 18 20 21 20 18 15 12 9 8 6 6 5 4 2 1 3 4 6 7 8
16 17 18 20 22 23 22 20 16 11 10 11 10 8 7 5 5 5 6 5 5 6 8 9 10 11 11 11 13 15 17 19 22 25 27 28 28 29 29 29 31 33 33 31 28 25 24 23 22 20 20 19 18 18 18 17 17 17 17 18 19 19 19 18 17 17 19 21 21 19 16 13 11 9 8 6 6 5 4 2 1 3 4 5 6 7 8
14 15 17 17 17 17 15 12 9 9 12 15 15 15 14 13 13 13 13 13 13 15 17 18 19 19 20 19 20 22 23 24 26 29 32 33 34 34 33 31 31 32 30 27 24 24 24 23 21 20 19 17 16 17 16 15 14 14 15 16 16 16 16 16 16 18 20 20 18 15 12 10 8 8 7 5 4 3 2 1 2 4 5 6 7 7 8
14 15 14 12 10 8 5 6 9 12 15 18 19 20 20 20 21 21 22 22 22 23 25 26 28 29 30 30 30 32 32 31 31 32 35 38 38 37 37 35 32 29 27 25 22 21 20 18 18 18 17 16 15 16 16 15 15 15 16 16 14 14 15 17 17 17 19 18 14 11 9 8 8 7 6 4 3 2 1 2 4 4 6 6 7 7 6
15 14 9 6 5 5 8 11 14 17 20 22 23 24 25 25 26 26 26 26 26 27 28 29 31 33 34 35 36 37 38 37 36 36 38 40 40 38 39 39 36 32 29 26 22 19 17 14 13 13 14 14 13 12 13 15 16 15 14 13 13 14 16 17 17 17 17 15 11 8 7 7 7 5 4 2 1 1 1 3 4 4 5 6 6 6 6
14 10 6 7 8 10 14 17 20 22 24 25 26 26 27 27 26 26 27 27 27 27 28 29 30 32 33 34 35 36 37 38 38 38 39 40 39 37 38 40 39 37 35 31 26 22 20 17 13 12 14 14 13 12 13 14 13 11 11 11 12 13 14 15 16 15 13 11 9 8 7 6 5 3 2 2 1 1 2 3 4 5 5 6 6 6 6
9 6 8 11 12 14 17 19 21 23 24 25 26 26 26 25 25 25 26 27 27 27 27 28 28 29 30 32 33 34 35 35 35 37 38 39 39 39 39 39 38 36 35 33 30 26 22 17 14 14 14 14 13 13 12 11 10 10 11 11 11 11 12 13 13 12 10 9 9 8 6 4 3 2 1 0 1 2 3 4 5 6 7 7 8 8 8
6 9 12 13 14 16 17 19 20 22 22 23 23 23 23 22 22 23 24 24 24 24 24 25 26 27 28 30 31 32 32 32 33 34 35 36 37 39 40 38 36 34 32 30 28 27 24 20 18 17 15 13 12 11 10 10 11 12 12 11 11 11 12 12 12 11 10 10 9 7 5 3 2 1 0 1 2 3 4 5 6 7 8 9 9 9 9
9 12 13 13 14 16 17 18 19 20 20 20 20 20 19 19 19 19 20 20 20 20 20 21 23 25 26 27 28 29 29 29 30 30 31 31 33 35 36 35 32 30 29 28 27 27 25 23 22 21 19 16 13 11 9 9 11 12 12 11 11 11 11 11 11 10 10 8 7 5 3 2 2 1 1 2 3 4 5 6 7 8 8 9 10 10 10
11 12 13 13 15 16 16 16 17 17 17 17 17 17 16 16 16 17 18 18 18 18 19 20 21 22 22 23 24 24 25 25 26 27 27 29 31 32 33 32 29 26 24 24 24 23 23 23 23 22 21 19 17 14 11 9 9 10 11 11 11 10 10 9 9 8 7 6 5 4 3 2 2 1 1 2 3 5 5 6 7 8 8 9 9 9 10
10 12 12 12 13 14 14 14 14 15 15 15 15 15 15 15 16 16 17 17 17 18 19 20 20 20 19 19 20 20 21 23 24 24 25 27 29 29 29 28 25 22 20 20 19 19 20 20 20 20 20 20 18 16 14 11 10 9 9 9 9 8 8 7 6 6 5 5 4 4 3 2 1 1 3 4 4 4 5 5 6 7 8 8 9 9 10
10 11 12 12 12 12 11 11 11 12 13 14 14 14 14 15 15 16 16 16 17 18 19 19 19 19 19 19 19 19 20 20 21 22 23 24 25 25 25 23 21 19 17 16 16 17 18 18 19 18 18 17 16 14 12 12 12 11 10 9 9 8 7 6 5 5 5 4 3 3 2 1 1 3 4 4 3 3 4 5 6 7 8 9 9 9 10
9 10 11 11 10 9 9 10 11 12 13 13 13 13 14 15 15 15 15 16 16 17 18 18 18 19 19 19 19 20 20 19 19 19 20 20 21 21 20 19 17 16 15 14 14 15 16 16 17 16 15 14 13 11 9 9 9 9 8 8 7 7 6 5 4 3 3 2 1 1 0 1 1 2 2 2 3 4 4 5 6 7 8 9 9 9 10
8 8 9 9 9 8 9 10 10 11 12 12 13 13 14 15 15 15 15 16 16 17 17 18 18 18 18 19 19 19 19 18 18 17 17 18 19 19 17 15 14 14 13 12 11 12 13 13 13 12 12 12 12 10 9 8 8 7 6 6 5 4 4 4 2 2 2 2 1 1 1 1 2 2 3 3 4 4 5 6 7 7 8 8 8 9 9
8 8 8 8 8 9 10 10 10 11 11 11 12 13 14 14 14 15 15 15 16 17 17 17 18 18 18 18 18 18 18 17 17 17 17 17 17 16 14 13 12 11 10 9 9 9 9 9 9 9 9 9 9 9 9 9 8 7 7 6 5 5 5 4 3 3 3 3 2 2 3 3 3 3 4 4 5 6 7 7 8 8 8 8 8 9 10
9 10 10 9 9 9 9 9 9 8 8 8 10 12 13 13 13 13 13 14 14 14 14 15 16 16 17 17 17 17 17 17 16 16 16 16 15 14 12 11 11 10 9 8 8 8 7 7 7 7 7 7 8 8 8 8 8 8 7 7 6 6 5 5 4 4 3 3 4 4 4 4 4 5 6 7 8 9 10 10 10 10 10 10 10 10 10
10 10 10 9 8 7 7 6 6 5 4 5 7 9 10 11 12 12 12 12 12 12 13 13 14 14 14 15 15 15 15 15 15 16 16 16 14 13 12 11 10 10 9 8 7 7 7 7 7 7 7 7 7 8 8 8 8 8 8 7 7 7 7 6 6 5 5 5 5 5 5 6 6 7 7 8 9 11 12 13 12 12 11 11 12 12 12
8 8 8 7 6 5 5 4 3 2 2 3 5 7 8 10 11 11 11 11 11 12 12 13 13 14 14 14 14 14 14 14 14 15 15 15 15 14 13 11 10 9 8 8 8 7 7 7 7 7 7 7 7 7 7 7 8 8 8 8 8 7 7 7 7 6 6 7 6 6 6 7 7 7 8 9 10 12 13 14 13 13 12 12 13 13 13
9 8 8 7 6 5 4 4 3 1 1 1 3 5 7 8 9 10 9 9 10 11 11 12 12 12 12 12 13 13 13 13 14 14 14 14 14 14 13 13 12 10 9 8 8 7 7 7 7 7 6 6 6 5 6 6 6 7 7 7 7 7 7 7 7 6 6 5 5 6 7 7 6 7 9 10 10 11 13 14 14 14 14 14 14 14 15
12 10 8 7 6 5 4 4 4 3 2 1 2 4 5 6 7 7 7 7 8 9 9 10 10 10 10 10 11 11 12 13 13 13 13 13 13 13 13 13 13 12 11 10 9 8 7 7 7 6 5 5 4 4 4 4 4 5 5 6 7 7 7 8 8 7 7 6 5 5 6 6 7 9 9 8 8 10 12 13 13 13 14 15 16 17 17
16 12 9 8 8 7 7 6 5 5 4 3 3 2 3 4 5 5 5 5 6 6 7 7 8 8 8 9 9 10 11 11 12 12 12 12 12 12 12 13 13 13 12 11 11 10 9 8 7 5 4 3 2 2 2 2 2 3 3 4 5 6 7 7 8 8 8 8 7 7 7 7 8 9 7 6 6 9 11 12 12 13 15 15 15 16 17
Wind_Direction
232 226 249 221 218 249 246 246 248 234 214 201 202 220 186 159 226 251 175 183 213 204 208 224 218 207 205 203 201 198 194 189 173 152 133 112 92 77 67 56 48 38 27 22 18 12 6 360 354 348 339 330 324 318 314 310 307 303 297 294 295 297 298 298 295 291 286 278 268 258 253 253 256 258 261 264 266 266 263 255 246 241 238 236 235 235 233
250 242 246 208 212 249 249 238 237 234 231 223 224 234 200 197 239 263 160 206 224 209 211 229 236 221 201 190 194 200 204 201 185 163 134 104 81 66 55 43 32 20 9 4 360 356 351 344 338 334 330 327 323 320 315 311 309 307 303 298 294 292 292 292 291 288 287 285 282 274 263 256 255 257 259 260 261 264 261 253 244 240 235 232 233 235 234
265 264 266 241 227 247 258 255 246 233 234 234 238 242 210 222 257 256 204 229 242 232 230 247 279 221 188 183 193 203 209 205 192 174 132 94 74 59 46 33 22 11 1 354 349 345 340 335 330 326 322 319 317 314 311 309 307 304 303 302 299 297 295 292 290 289 287 284 282 281 276 267 259 257 258 256 256 258 256 248 242 238 233 229 229 231 232
260 244 257 261 260 266 262 255 247 239 231 219 223 224 196 209 236 232 220 234 247 238 227 231 215 190 190 194 197 202 212 210 197 179 131 91 64 43 29 17 9 1 353 347 342 338 332 328 325 321 317 315 312 309 306 305 304 303 303 301 299 298 297 295 292 291 289 285 283 282 282 279 270 261 261 261 258 256 253 246 238 232 228 226 225 226 229
268 233 253 281 305 289 266 234 225 243 239 230 228 225 210 213 223 231 233 244 285 304 211 214 208 195 196 200 189 193 210 210 205 194 151 90 43 20 10 3 356 349 345 339 334 331 327 323 319 317 315 312 309 306 304 303 302 302 302 302 300 298 297 296 296 293 289 287 284 283 283 283 277 267 261 261 258 256 253 246 236 227 224 223 223 224 227
266 273 352 328 268 262 261 104 247 255 251 252 252 251 259 240 239 265 276 295 352 351 227 234 214 173 159 152 149 187 236 236 233 225 211 155 6 353 345 343 341 339 336 332 329 327 323 319 316 314 312 309 305 302 301 300 300 300 300 300 300 300 299 297 296 295 291 285 282 280 281 282 279 270 262 259 258 255 251 243 232 223 221 221 220 221 224
263 357 16 252 245 250 309 28 313 269 266 269 263 273 20 8 319 304 300 317 360 234 162 49 67 102 100 73 22 356 334 311 282 254 245 266 317 328 327 326 327 330 330 329 327 325 322 318 316 314 312 309 304 300 300 299 299 300 299 298 299 301 302 299 295 291 289 284 279 275 275 277 276 272 265 261 259 254 248 240 229 221 219 218 216 217 219
211 147 193 214 274 316 300 308 337 308 299 311 267 181 52 24 351 327 326 348 13 63 86 66 60 60 36 7 46 45 31 15 355 320 293 299 310 314 315 313 315 320 325 325 322 320 318 316 316 315 313 309 305 303 302 302 302 302 300 298 299 300 301 300 294 287 283 281 277 272 270 271 271 269 265 262 260 255 246 234 224 219 217 214 212 213 216
184 220 226 239 310 306 277 315 11 325 317 5 325 205 63 27 1 357 7 11 12 18 41 48 41 32 16 5 81 54 31 14 360 341 324 317 311 307 306 305 308 314 318 318 315 313 311 310 311 313 311 307 306 305 305 305 306 305 301 300 301 300 297 295 290 284 280 278 275 271 268 267 267 266 263 260 259 254 243 229 220 216 213 209 209 212 213
170 238 259 264 280 281 260 62 340 305 264 264 284 243 114 48 16 2 5 10 7 2 14 28 28 19 357 246 123 20 1 348 339 329 320 314 309 307 307 308 309 311 312 311 309 307 305 305 307 308 306 304 303 303 304 307 306 304 303 303 303 299 293 288 285 281 278 275 273 270 266 265 265 262 258 256 255 251 241 228 217 211 207 204 203 204 204
186 219 253 251 237 248 11 299 317 323 278 221 219 239 210 59 9 353 357 1 1 4 12 23 20 350 312 259 301 333 335 330 326 323 318 313 309 306 306 308 308 308 307 306 305 303 302 302 304 305 303 301 301 302 305 307 305 303 303 303 300 294 289 285 282 278 275 273 271 267 263 263 261 256 253 256 255 248 233 219 208 202 199 197 193 190 193
213 219 252 253 239 271 315 280 313 330 291 209 230 249 246 358 335 330 338 339 345 355 358 15 38 278 275 290 309 317 320 318 317 317 313 310 308 305 305 305 305 305 304 303 302 301 300 301 303 303 301 299 300 303 306 307 304 304 304 302 296 290 286 283 280 276 272 270 268 263 260 258 255 251 249 253 254 241 220 207 202 198 193 190 186 186 197
227 226 253 261 265 260 184 287 326 353 134 195 240 261 313 321 311 315 315 302 315 332 321 287 264 276 288 302 308 310 313 313 313 312 310 309 308 307 306 306 306 304 302 300 299 297 297 299 300 300 299 298 299 303 305 303 301 304 305 302 297 291 285 280 277 273 269 266 263 259 256 252 246 242 244 250 247 227 207 199 196 191 185 183 185 194 207
245 215 256 281 289 128 125 342 344 23 169 231 278 310 312 301 299 308 303 288 297 308 293 279 286 295 303 309 309 309 310 310 309 309 309 309 308 308 308 308 308 306 304 301 298 296 295 295 296 297 298 297 297 301 302 300 300 303 305 304 299 291 282 275 271 265 261 259 256 251 247 243 236 235 241 244 233 214 199 191 186 181 178 181 190 199 203
273 224 234 266 282 78 49 355 353 33 79 320 329 321 310 303 301 296 285 284 300 301 290 290 299 307 311 309 308 308 307 306 306 305 305 306 306 306 307 306 307 307 304 301 299 298 296 293 292 294 295 295 296 297 298 298 298 298 300 302 298 289 278 268 261 256 254 252 247 242 239 233 227 231 236 230 214 200 189 181 177 175 175 183 193 196 194
249 230 213 233 318 18 4 330 317 299 278 317 324 317 302 300 301 288 272 285 306 306 303 308 312 313 312 309 308 308 305 303 302 301 301 301 301 302 302 302 304 305 302 300 298 296 294 293 292 292 293 294 294 293 294 294 292 288 291 295 292 284 276 265 255 250 248 243 239 236 230 225 226 229 224 209 195 185 176 172 171 169 171 176 179 180 189
269 272 275 290 297 303 314 316 303 284 281 301 314 314 301 301 304 292 278 292 305 306 310 315 313 310 310 309 308 306 303 302 300 300 300 299 298 299 299 298 300 301 300 298 297 295 294 294 293 292 293 293 292 291 291 290 285 280 282 286 284 280 273 263 253 247 242 236 231 226 223 228 230 219 198 182 173 168 165 166 165 162 162 166 174 187 200
303 285 271 282 293 300 311 312 306 299 299 304 315 321 319 319 319 313 305 306 308 307 311 313 309 306 305 305 303 302 301 300 300 300 299 297 295 294 294 294 297 298 297 295 294 294 295 296 294 293 293 293 292 290 289 285 280 276 273 273 273 273 270 261 250 244 235 224 219 220 222 220 207 186 169 161 155 149 148 151 153 159 166 175 185 189 182
302 286 293 313 305 304 308 309 307 309 312 314 318 319 317 318 319 316 312 308 305 304 305 305 303 301 300 298 296 297 298 299 300 300 298 295 293 291 291 292 294 295 293 292 291 292 294 295 294 295 295 294 293 291 287 282 277 272 264 257 259 265 267 259 246 233 224 220 217 209 197 184 173 164 160 156 147 140 142 153 162 171 179 181 173 153 114
276 277 289 295 294 295 299 301 303 307 310 313 312 309 306 306 309 310 308 303 300 298 298 298 297 297 296 294 295 296 298 298 299 297 296 294 293 292 291 291 292 292 291 289 289 289 290 292 294 296 295 295 293 288 282 275 270 264 257 250 251 257 260 251 235 224 222 219 200 177 166 162 158 153 149 146 143 143 152 166 172 172 170 161 141 111 79
286 282 287 291 293 295 295 295 298 301 303 307 308 303 298 298 301 304 303 299 295 293 292 292 292 292 293 294 295 296 296 296 295 294 294 294 293 292 291 290 290 289 288 287 287 287 288 290 294 296 295 294 291 283 274 266 260 255 251 248 248 250 244 232 225 221 215 198 175 160 156 153 146 140 138 142 150 156 161 167 168 162 151 139 119 92 60
287 287 298 304 303 297 294 296 299 300 300 301 298 294 292 292 294 297 297 295 292 288 285 285 287 290 292 294 294 294 293 291 291 291 292 293 291 289 289 288 288 287 287 286 286 285 286 290 294 296 295 292 286 275 265 259 255 251 247 245 243 235 222 218 218 209 192 174 162 155 150 145 140 140 143 148 155 160 159 157 152 142 128 115 95 67 40
294 294 298 300 295 289 289 292 295 297 299 298 292 285 285 287 290 292 293 291 287 283 282 285 289 291 292 293 293 292 290 290 291 292 293 293 291 289 287 286 286 286 287 286 284 284 287 292 294 293 291 286 278 270 262 258 255 250 243 238 230 216 210 214 208 188 169 159 153 149 144 141 142 146 146 144 148 154 156 149 138 125 112 101 78 47 27
292 293 294 294 290 287 287 289 292 298 303 301 294 290 287 286 288 288 284 281 281 282 286 290 291 291 293 294 293 291 292 294 295 294 293 292 291 289 287 285 284 284 285 285 284 284 286 290 290 289 287 282 276 272 268 263 258 248 233 222 214 205 202 197 183 167 156 151 148 146 143 144 148 150 148 145 145 148 149 144 135 126 118 105 66 30 17
291 293 295 294 287 285 288 290 293 300 304 301 297 299 297 290 285 282 279 279 282 284 287 290 292 294 297 297 295 292 293 294 295 294 293 291 290 289 289 289 288 287 286 286 284 282 283 285 286 283 280 276 273 272 267 255 242 226 209 204 203 196 185 172 161 153 149 147 146 144 142 145 151 153 152 151 149 149 150 152 153 153 150 128 54 21 12
298 297 299 296 289 288 294 294 293 297 300 296 295 300 301 292 283 281 282 284 286 287 288 290 294 295 295 294 293 293 293 295 297 297 294 292 290 290 290 289 289 289 288 285 280 277 277 277 273 271 272 276 278 274 255 215 194 190 190 191 185 172 160 152 148 147 148 147 145 142 141 146 155 158 155 153 151 149 151 157 163 168 173 172 51 21 13
303 302 302 296 289 291 296 297 296 299 300 297 295 300 305 303 296 291 291 292 292 292 292 293 294 294 293 292 293 294 295 297 297 294 291 289 289 288 288 288 290 289 286 279 267 258 256 255 254 255 275 309 285 210 173 164 164 167 165 159 151 146 144 142 142 145 148 148 146 145 149 155 160 158 153 148 146 145 148 155 163 171 178 175 70 28 17
309 311 308 298 293 298 302 302 302 302 302 300 297 297 301 304 301 297 296 297 296 296 300 303 303 300 295 294 295 295 295 294 293 291 290 288 287 288 290 292 292 285 270 247 223 207 187 159 132 110 97 95 104 117 126 131 133 133 133 134 135 138 140 140 141 144 148 149 146 149 156 160 158 152 146 142 142 146 153 161 170 180 183 162 76 34 19
313 313 310 302 299 303 308 309 308 307 307 305 302 300 300 300 297 294 295 298 300 305 312 314 309 298 293 293 295 297 299 298 297 296 295 292 290 289 291 291 283 248 193 171 163 150 134 122 114 108 104 104 107 110 113 115 117 121 126 130 134 136 139 141 144 146 150 152 152 154 157 157 151 144 141 143 149 156 162 171 179 186 179 130 61 29 15
312 313 314 311 311 314 316 315 312 312 313 312 308 307 307 302 296 295 298 301 305 308 310 308 299 292 294 300 304 307 309 312 316 323 329 318 297 282 264 231 186 153 141 140 140 133 124 117 114 110 108 110 112 113 114 116 118 122 126 128 130 132 135 140 144 147 150 153 154 153 153 150 144 142 144 150 157 160 161 165 175 179 163 73 29 13 4
317 318 319 318 320 322 320 319 319 319 320 316 309 306 307 303 299 302 306 309 310 307 305 305 304 307 316 325 334 347 2 22 33 39 49 60 89 138 142 141 138 133 131 133 135 130 123 119 119 116 116 118 117 115 115 118 120 122 124 126 128 132 137 142 146 150 152 152 151 150 148 146 144 145 149 153 155 157 159 165 173 173 82 12 3 357 353
324 326 328 329 332 330 326 327 329 329 329 326 318 315 316 312 311 323 341 345 340 334 337 353 10 13 14 30 55 61 61 63 64 66 71 80 92 106 116 125 130 131 131 134 135 132 128 126 124 122 124 126 125 122 119 119 121 124 128 132 135 140 145 151 154 155 153 152 150 147 145 145 147 151 154 155 156 160 162 165 166 36 3 350 346 346 347
334 333 333 334 334 329 325 329 338 349 6 18 25 38 54 64 72 79 76 63 57 59 58 59 59 55 52 59 66 69 71 73 74 74 75 78 84 93 103 116 128 133 134 136 136 133 131 131 130 129 130 132 133 132 129 127 129 132 135 139 144 150 154 157 157 155 152 150 147 145 146 149 152 153 155 154 155 158 158 152 15 353 343 335 335 341 344
337 331 329 329 328 321 321 337 10 41 53 57 64 72 78 82 86 87 85 82 80 77 74 73 72 69 69 70 69 68 70 72 71 71 73 76 80 85 91 104 122 132 136 139 140 137 136 137 136 137 139 143 148 151 150 147 147 149 150 153 157 158 157 156 156 155 153 150 148 149 153 155 153 152 152 147 141 144 143 9 346 337 332 330 332 336 339
341 338 338 338 338 336 356 42 60 68 71 73 77 81 84 86 87 86 85 83 79 76 74 74 72 71 71 71 67 63 62 62 64 70 74 76 79 82 87 97 110 122 129 134 138 140 144 149 150 148 145 144 149 157 160 160 160 160 160 161 162 159 155 154 154 155 156 155 155 157 160 159 159 156 148 135 129 130 34 345 336 330 329 329 328 327 328
349 353 7 28 32 48 75 81 79 80 80 80 81 83 83 82 81 79 78 75 73 71 71 70 69 67 67 66 63 60 58 57 59 65 71 75 78 82 87 91 95 100 105 110 115 123 131 137 145 150 150 148 151 158 160 159 160 160 160 161 161 157 154 154 154 156 159 163 165 165 161 162 163 157 143 134 131 82 357 341 333 329 329 328 324 321 322
356 6 57 92 84 79 84 86 86 86 84 83 82 80 78 77 76 75 73 70 67 65 65 64 63 64 64 64 62 60 58 56 55 57 63 71 79 84 83 81 82 85 86 82 82 93 105 112 122 137 145 146 148 147 143 144 148 149 147 149 151 152 153 156 159 162 165 167 167 162 156 157 157 148 137 137 113 6 339 331 332 331 331 336 337 335 333
11 51 104 105 93 89 91 91 90 90 88 85 83 80 78 77 76 74 71 69 65 63 61 60 61 63 63 63 62 61 60 59 57 55 56 62 72 77 73 68 69 73 74 69 70 79 91 103 118 131 135 137 139 136 133 134 137 136 134 134 136 140 148 156 165 170 171 166 161 155 150 147 147 136 127 144 315 319 320 325 331 332 335 342 346 347 346
67 104 108 100 94 95 96 94 92 89 86 84 83 80 78 77 75 72 71 69 66 63 61 60 60 60 61 61 62 62 62 62 61 60 58 59 65 70 69 64 62 63 65 67 71 77 83 90 100 107 109 115 124 130 135 141 140 134 130 129 131 136 144 153 162 168 167 162 159 152 141 136 146 162 222 277 298 312 321 325 329 332 336 341 343 345 349
108 115 106 100 101 102 99 95 91 86 83 81 80 78 76 73 71 69 68 66 64 61 59 58 57 56 57 59 61 63 64 64 64 65 65 65 66 69 70 68 66 64 64 65 68 71 73 76 80 82 83 85 93 102 117 134 138 135 131 131 134 138 144 151 157 159 158 158 156 152 144 154 187 216 257 290 306 316 321 324 330 336 340 341 341 343 347
121 120 110 108 110 106 100 95 90 86 83 79 76 74 72 68 65 65 64 64 63 61 58 56 56 56 56 57 58 59 61 63 64 65 66 66 66 67 67 66 66 66 67 69 71 72 72 73 73 73 71 72 75 79 86 102 117 124 127 130 132 134 140 148 154 155 156 159 162 164 169 180 189 207 285 306 309 314 322 328 335 342 345 344 344 345 345
132 128 120 116 113 107 100 97 91 86 83 79 73 71 68 63 60 60 60 61 62 61 60 59 58 57 56 55 55 53 53 56 58 60 62 64 66 67 66 65 64 64 67 72 77 79 80 78 75 72 69 67 67 70 76 84 94 103 111 120 125 129 136 147 153 155 156 158 158 158 161 157 160 284 303 308 310 317 330 339 345 351 354 353 353 353 352
146 139 129 122 118 110 103 98 91 85 82 78 73 68 63 58 56 57 59 59 60 61 61 61 60 59 58 57 56 54 53 53 54 57 59 62 65 67 68 68 67 63 61 62 67 72 76 77 75 71 68 66 65 67 74 81 84 86 90 96 100 105 111 119 124 125 128 131 133 137 144 149 297 297 300 308 319 335 352 360 1 1 0 358 358 360 359
154 148 138 131 126 118 109 101 94 88 83 79 72 64 60 57 56 56 56 57 58 59 59 59 58 57 56 55 55 54 54 55 56 59 61 62 62 62 63 65 66 64 60 57 56 59 64 67 67 66 68 69 67 67 71 77 80 81 82 83 84 87 92 95 95 93 91 91 95 89 332 309 304 310 317 333 345 351 354 357 358 358 357 355 357 1 3
145 145 139 132 126 118 111 104 99 92 86 79 72 64 57 52 51 49 48 48 49 50 51 51 51 50 49 49 49 49 49 50 52 54 55 56 56 55 53 52 54 55 53 50 50 54 58 59 57 56 59 62 64 65 68 72 73 74 74 74 74 74 74 69 61 49 39 36 39 32 19 7 360 360 360 360 357 356 356 357 357 356 354 354 357 3 7
126 126 124 121 119 115 111 105 98 91 82 73 65 59 51 45 42 41 39 38 38 38 38 38 39 39 39 39 40 41 42 43 46 48 50 49 48 47 45 45 46 47 45 42 43 47 51 51 48 46 46 48 50 54 59 63 63 64 66 68 69 70 68 60 49 40 36 37 40 38 29 21 18 21 24 23 18 16 16 15 14 15 17 19 20 19 18
117 115 115 117 118 113 107 99 90 81 71 60 56 54 49 41 37 38 38 37 35 33 32 32 32 32 32 31 31 32 34 35 38 44 48 50 46 42 38 37 37 37 36 34 33 34 35 32 26 25 26 28 29 33 41 46 49 52 53 53 54 58 60 59 56 53 52 50 48 45 41 39 41 44 44 38 29 24 24 26 31 37 42 43 41 37 31
124 122 121 123 124 119 109 97 85 70 58 51 49 49 44 36 31 32 35 35 33 30 30 31 30 30 31 31 31 32 33 33 33 36 40 43 44 43 38 34 31 28 26 25 24 22 20 15 8 6 6 5 6 12 20 26 32 36 37 37 37 35 34 37 43 43 41 41 42 42 46 49 52 54 53 43 33 31 35 38 41 45 49 48 45 42 39
151 145 141 139 139 136 130 121 99 61 35 37 42 41 37 31 24 21 25 30 28 25 26 29 29 30 30 31 33 36 37 36 35 34 32 33 36 39 39 38 34 29 23 20 17 13 11 9 6 3 3 3 4 9 15 19 24 29 31 31 30 27 27 30 32 31 30 30 31 35 49 58 59 58 57 50 42 43 48 48 45 43 43 42 39 38 39
186 181 176 171 164 157 156 156 148 118 54 50 46 41 36 30 21 16 20 27 28 25 26 28 28 27 28 30 33 36 38 38 37 36 32 29 28 29 30 32 33 31 27 24 18 11 10 12 12 13 16 19 22 26 28 27 28 31 30 27 23 20 21 26 29 30 34 34 29 31 46 58 60 60 61 57 48 49 55 54 47 42 41 37 33 32 34
205 201 195 191 188 186 186 184 181 178 170 132 80 54 41 33 25 18 20 28 31 29 30 31 29 29 32 36 37 38 38 37 35 33 31 28 26 25 25 26 27 26 25 24 21 16 15 17 23 31 43 49 49 51 52 47 40 38 37 32 22 16 21 30 34 31 31 35 40 49 61 66 65 68 69 62 50 54 61 57 48 47 47 40 31 27 28
218 219 215 212 213 214 213 209 200 190 178 158 126 82 50 38 29 18 19 30 34 33 35 37 35 33 36 42 44 44 41 37 32 28 26 26 27 28 28 27 24 22 21 21 21 20 21 25 33 47 67 83 77 59 40 16 3 7 14 15 15 19 30 42 44 38 35 37 44 57 71 72 67 68 70 58 46 58 65 58 46 47 52 47 36 28 26